Theta_e
314 316 320 321 330 327 330 333 329 329 336 332 332 334 335 333 336 338 330 330 332 335 335 335 334 334 334 334 334 334 332 331 330 329 329 328 326 325 323 322 321 321 321 320 319 319 318 317 316
313 317 318 317 328 332 328 322 322 325 334 330 328 330 332 335 330 330 328 327 329 333 335 334 334 334 333 332 331 330 330 330 329 327 326 326 324 323 322 320 319 319 318 318 317 316 315 314 314
314 315 316 317 321 328 327 315 316 324 329 325 329 327 329 330 329 326 324 326 329 331 332 332 332 331 331 330 329 329 328 327 326 326 325 324 322 320 319 318 317 317 316 316 315 314 313 312 312
314 311 310 314 314 311 312 310 309 316 320 324 326 328 327 326 325 323 324 325 328 328 328 329 328 327 327 326 325 324 324 324 323 322 322 320 318 316 315 314 314 314 314 313 313 312 312 311 311
311 309 314 314 312 310 307 306 309 315 319 317 324 327 328 326 324 324 324 326 325 325 324 324 324 322 320 320 318 318 318 318 317 315 314 312 312 311 310 308 308 310 310 311 311 311 311 311 311
312 309 316 315 311 308 306 302 309 311 313 314 325 324 327 324 323 323 324 323 322 321 319 317 316 315 314 313 311 308 306 305 304 303 302 302 302 302 304 303 302 308 310 310 310 310 311 311 309
310 310 312 309 309 308 305 302 307 311 313 317 317 324 325 324 323 323 322 320 319 318 316 315 315 315 314 313 311 309 307 305 303 302 302 301 301 301 300 300 300 302 307 308 308 307 308 307 305
304 306 307 307 309 308 303 304 302 309 316 316 319 324 323 324 324 323 320 318 317 316 316 315 314 315 314 314 313 311 309 307 306 305 304 303 303 302 302 301 300 300 301 300 301 303 302 300 298
304 307 307 306 307 306 302 305 301 310 319 319 320 322 323 323 322 317 315 313 313 312 312 311 310 311 312 312 312 311 310 308 307 305 303 303 302 302 301 300 299 299 299 299 299 299 299 299 299
305 306 306 303 303 304 303 302 301 305 308 317 318 318 319 315 312 310 308 307 307 305 305 306 307 308 308 308 309 311 310 309 308 306 305 305 303 303 302 301 300 300 299 299 299 299 299 299 299
304 305 304 304 305 303 303 302 299 303 307 306 312 317 313 312 307 306 305 303 303 302 302 302 303 303 304 304 304 305 306 308 308 306 305 305 305 304 304 303 302 302 301 300 299 299 299 299 299
304 303 304 304 302 303 304 301 298 298 301 304 316 313 307 305 304 303 301 300 299 299 299 300 300 301 302 304 305 306 306 307 307 305 306 306 305 304 304 304 304 303 302 302 301 301 300 300 299
304 304 303 303 302 301 300 299 299 297 296 310 307 305 304 303 300 299 298 297 297 296 296 296 296 297 299 302 303 303 304 304 304 304 304 303 303 303 303 303 303 303 302 302 302 301 301 301 301
304 304 302 301 300 300 302 300 300 297 295 307 305 303 300 299 298 297 296 295 294 294 293 292 292 292 293 293 293 295 295 295 298 297 295 296 297 298 299 300 302 302 302 302 302 301 301 301 301
303 306 305 300 299 301 300 303 299 295 298 307 303 300 298 297 295 294 293 291 291 290 290 289 289 289 289 289 289 289 290 289 290 289 288 288 288 287 287 288 290 292 295 298 301 301 301 301 301
305 304 307 304 299 300 303 306 298 296 310 308 303 299 297 295 292 290 289 288 288 288 288 287 287 287 288 288 288 288 287 288 287 287 286 286 286 285 286 286 286 287 287 289 290 295 298 299 299
304 308 308 307 298 298 300 304 297 296 309 303 300 298 296 293 291 289 288 287 287 287 287 286 286 286 287 287 287 287 287 287 286 286 286 285 285 285 284 285 286 285 287 290 291 292 293 295 297
309 308 306 307 301 297 298 296 296 296 300 301 299 297 294 292 290 288 287 286 286 285 285 285 285 285 285 286 287 287 287 286 285 285 284 284 283 283 283 283 283 284 286 288 289 291 292 293 294
304 306 302 298 298 297 297 295 295 295 296 296 296 295 293 291 289 288 287 286 286 285 284 284 284 284 284 284 284 284 283 284 284 283 283 283 282 282 282 282 282 283 285 286 287 289 290 292 293
298 298 297 296 296 297 296 297 297 294 295 295 295 294 292 290 288 287 286 286 285 284 284 284 283 283 283 282 282 282 282 283 283 282 282 282 282 281 282 282 282 283 284 285 285 286 288 290 291
299 299 298 298 297 296 293 298 296 294 293 291 291 291 289 289 288 287 286 285 285 284 284 283 283 283 282 282 282 282 282 282 282 282 281 281 281 281 281 281 282 282 283 283 284 284 285 287 287
300 298 298 298 298 300 293 303 297 294 293 292 291 289 288 287 287 286 286 285 284 284 283 283 283 282 282 282 281 281 281 281 281 281 281 281 280 281 280 281 281 281 282 282 282 283 283 284 285
298 298 298 297 295 297 296 295 297 293 295 293 291 289 287 286 286 286 285 285 284 284 283 283 283 282 281 281 281 281 281 281 281 281 281 281 281 280 280 280 280 280 280 281 282 282 282 282 283
296 297 296 294 293 299 289 293 301 298 296 294 291 289 288 286 285 285 285 284 284 284 284 283 282 282 281 281 281 280 280 280 280 280 280 280 280 280 280 279 279 279 280 280 280 281 281 281 282
296 296 299 303 300 305 280 292 300 297 293 292 292 289 287 286 285 284 284 284 284 284 284 282 281 281 281 280 280 280 280 280 280 280 280 280 280 279 279 279 279 279 279 279 279 280 280 280 281
297 293 299 296 300 300 281 296 301 293 290 289 289 288 287 285 285 284 284 284 284 284 284 282 281 280 280 280 279 279 279 279 279 279 279 279 279 279 279 278 278 278 278 278 278 279 279 280 281
296 293 292 287 276 288 294 295 296 292 291 290 289 289 287 285 285 284 285 285 284 284 284 281 280 280 279 279 278 278 279 279 279 279 279 279 279 278 278 277 277 277 277 277 278 278 279 279 280
294 292 295 292 295 297 296 288 301 295 291 288 290 289 288 287 285 285 285 284 284 284 281 280 279 279 278 278 278 278 278 278 278 278 278 278 278 277 277 277 276 276 276 276 277 278 279 279 280
292 292 291 292 294 295 294 299 293 291 286 286 285 288 285 284 285 283 282 282 283 280 279 279 278 278 277 277 277 277 277 277 277 277 277 277 277 277 277 276 275 275 275 275 276 276 277 279 280
295 292 294 296 292 290 292 297 291 284 278 276 285 286 284 277 280 279 280 281 279 279 279 278 278 277 277 277 277 276 276 276 276 276 276 276 276 276 276 275 275 275 274 274 275 276 276 277 279
Wind_Speed
14 12 7 5 4 4 2 2 1 2 3 3 2 5 9 6 5 3 9 16 13 14 16 18 14 14 12 11 12 14 12 13 15 14 14 14 15 13 13 13 12 12 13 13 13 13 13 12 11
11 7 5 3 4 3 1 4 4 2 5 6 6 3 6 5 4 3 8 18 12 19 20 19 17 18 18 17 16 14 13 13 13 12 13 13 13 13 13 12 12 13 13 13 13 13 14 14 13
6 7 4 4 3 3 3 1 2 2 3 1 4 5 3 4 4 4 11 9 16 23 24 21 21 19 18 18 17 14 12 13 13 13 12 13 12 12 12 13 13 13 13 13 13 13 13 13 13
4 6 4 5 4 2 2 2 2 3 2 7 4 7 3 7 3 8 10 14 19 22 21 19 19 20 20 19 18 16 15 15 14 13 12 11 11 12 12 13 13 13 13 13 13 13 13 13 12
6 3 5 4 2 2 2 2 3 4 3 5 2 4 4 4 7 11 15 19 21 22 22 21 19 19 17 16 15 15 14 13 13 11 11 11 12 12 13 13 13 14 14 14 14 14 14 14 13
4 3 5 3 2 3 3 5 3 4 5 3 5 4 4 7 12 13 17 19 19 20 21 21 21 20 19 17 16 15 14 13 12 11 11 12 13 13 13 13 13 13 14 14 14 14 14 14 14
6 4 3 3 2 4 4 7 4 2 4 6 3 4 3 8 9 12 15 17 18 18 19 20 20 19 18 17 16 15 14 13 12 12 12 13 13 13 13 14 14 14 13 13 13 13 13 13 14
4 4 3 3 2 2 5 2 1 5 4 3 1 3 2 1 5 9 13 15 17 17 17 17 17 18 18 17 15 15 14 13 13 13 13 13 13 13 14 15 15 14 15 15 14 14 14 16 16
2 5 3 2 2 1 4 2 4 2 6 4 3 3 4 3 8 11 10 14 17 19 18 17 17 18 16 16 15 15 15 15 14 14 14 15 15 15 16 16 16 16 16 16 16 16 16 17 17
5 4 2 1 1 1 3 3 2 4 3 4 4 7 8 13 11 14 16 15 19 19 17 17 17 16 17 17 15 14 13 14 15 16 16 17 17 18 18 18 18 18 18 17 17 17 17 17 18
5 4 4 1 2 2 1 4 3 4 4 3 1 4 6 8 13 12 15 15 14 13 15 17 17 17 17 17 16 14 13 12 14 15 16 17 17 18 19 19 18 19 20 20 20 20 20 20 20
7 5 2 2 5 1 2 3 5 6 2 7 4 8 7 13 14 13 12 12 14 16 17 17 18 18 18 18 18 17 15 14 14 15 17 19 20 20 21 22 22 21 21 22 22 22 22 22 22
6 3 5 2 6 5 6 4 6 4 7 2 10 13 10 11 11 11 10 12 13 15 16 17 18 18 17 17 17 17 17 17 17 17 18 20 20 21 22 22 22 23 23 23 24 24 24 24 24
3 6 3 5 7 5 3 2 3 2 5 5 9 9 10 12 9 8 11 13 14 14 16 15 17 16 16 17 18 18 18 18 17 19 20 20 20 21 22 23 23 24 24 24 25 26 28 28 28
4 5 3 8 7 2 1 2 2 4 6 8 8 9 8 11 9 10 11 12 13 13 14 16 16 17 18 18 19 20 18 20 18 20 22 23 24 26 27 28 27 27 28 28 28 29 29 31 31
5 5 3 3 7 1 1 7 5 3 12 11 9 7 7 8 10 11 11 12 12 12 14 15 17 18 19 19 18 19 20 19 22 23 27 27 27 30 30 30 29 31 32 29 28 28 28 27 29
7 2 2 6 4 5 2 6 3 2 11 5 6 7 6 6 7 8 8 9 10 12 13 15 17 20 20 20 20 20 23 22 25 25 29 29 30 32 30 28 30 32 30 27 25 27 24 25 26
2 0 3 5 5 5 5 10 4 1 3 4 5 5 5 5 3 4 6 8 10 13 15 17 19 21 23 23 24 24 26 24 26 27 30 30 33 33 32 30 32 32 29 26 26 26 26 25 25
1 1 3 4 1 4 5 9 9 6 5 6 5 6 6 6 4 3 4 7 9 13 15 19 20 21 24 27 30 28 31 27 30 29 32 30 33 33 30 29 29 28 25 24 24 25 27 26 23
3 1 4 6 2 3 6 19 13 10 6 8 11 8 7 4 4 2 3 7 10 10 11 13 16 18 21 23 24 23 25 24 27 32 34 32 33 33 25 27 25 24 24 23 23 24 27 25 22
1 0 2 5 8 1 7 9 3 3 2 4 4 3 3 5 4 2 1 2 4 8 11 13 16 18 20 23 25 26 23 24 21 35 34 35 35 33 28 27 24 24 23 24 23 22 23 28 25
3 2 2 4 4 3 5 5 6 1 5 6 6 7 5 6 4 5 5 3 5 7 10 13 15 19 21 23 25 26 21 19 23 27 27 33 33 31 31 28 25 25 25 24 24 23 24 24 27
1 2 1 2 3 2 4 2 7 3 5 8 10 9 9 8 7 7 8 6 4 6 9 13 16 19 22 23 24 25 24 24 24 24 25 25 23 25 27 26 26 26 26 26 26 27 25 24 26
2 1 4 3 3 3 3 3 5 4 4 3 2 9 11 9 7 11 10 7 6 6 10 15 18 22 25 25 25 26 27 26 25 26 26 24 25 24 23 24 25 25 26 27 29 28 27 27 28
6 5 4 6 5 5 1 1 11 3 5 3 5 7 10 7 7 7 9 9 8 9 13 18 20 23 27 28 28 28 29 27 24 26 25 28 26 25 26 26 26 27 28 28 29 27 27 26 27
3 4 4 4 4 5 2 6 5 3 2 4 5 6 6 8 8 7 11 11 11 11 14 19 21 25 28 29 29 29 30 29 25 25 27 27 27 27 27 27 28 29 28 28 27 27 29 29 30
1 4 3 6 1 3 3 7 10 2 6 5 6 3 7 8 7 6 11 11 13 13 14 18 23 26 28 29 30 29 28 25 26 27 27 27 27 28 28 29 29 28 28 29 28 29 29 29 30
4 3 4 3 5 7 5 5 6 6 5 4 7 8 9 7 6 5 7 9 11 9 15 20 24 26 27 26 26 25 27 26 26 27 27 28 28 28 28 28 28 29 30 29 28 30 30 29 31
2 2 5 3 3 4 5 6 7 7 4 4 6 8 7 7 4 3 8 11 8 13 19 22 25 26 25 25 26 26 25 26 27 28 29 28 28 28 27 26 27 28 30 30 29 29 29 29 30
1 4 4 4 6 3 1 13 1 4 3 3 8 7 6 1 2 5 9 8 13 19 22 24 26 27 24 26 25 25 26 27 28 28 29 29 29 29 28 27 27 28 29 30 29 29 28 29 30
Wind_Direction
341 346 350 37 66 65 48 25 263 47 53 4 10 69 101 43 46 87 329 346 3 36 41 45 48 67 64 71 74 74 66 47 44 39 34 35 26 29 25 23 18 22 19 16 16 10 11 13 10
347 2 42 76 83 80 13 324 48 21 128 141 61 355 56 72 27 69 5 352 34 57 63 61 56 62 59 56 55 47 37 35 24 21 29 26 28 18 24 18 17 19 14 13 10 8 5 5 4
360 22 72 79 88 103 135 328 352 63 124 196 101 56 42 12 50 22 347 27 65 71 73 67 57 56 57 55 56 54 44 41 39 33 31 28 21 18 15 14 12 13 10 6 7 4 1 358 358
15 26 42 73 80 73 73 329 296 189 57 44 109 67 75 45 27 3 24 56 65 60 56 57 60 56 58 55 46 43 39 36 35 33 26 26 21 12 13 10 7 5 4 2 1 359 355 354 352
41 54 61 82 52 86 54 326 300 57 81 22 25 99 72 45 42 47 51 55 54 53 52 48 44 41 40 38 34 35 32 32 28 23 19 16 14 10 9 6 5 1 359 358 355 353 351 349 348
47 83 64 93 68 348 38 7 350 43 26 27 65 80 74 35 44 49 53 52 53 51 48 45 42 39 35 32 28 23 21 15 11 4 2 356 352 351 351 352 353 355 353 352 351 348 345 344 345
101 72 112 108 111 37 341 326 48 61 23 25 329 79 82 47 48 61 57 52 50 48 48 43 40 37 33 28 23 20 17 12 6 1 357 353 351 349 345 341 343 341 343 342 344 340 341 339 335
94 90 83 32 93 48 330 25 340 51 59 309 340 75 111 89 62 44 54 56 52 49 43 37 34 31 21 18 16 12 11 8 5 0 356 350 347 346 344 340 338 336 334 333 332 331 330 328 328
94 65 71 49 95 238 337 79 5 83 87 48 44 62 62 60 43 64 53 43 36 35 32 28 24 22 8 4 5 5 7 5 2 0 357 352 350 346 341 341 337 334 331 328 327 326 324 323 322
58 77 93 253 219 91 359 76 318 74 50 62 74 57 49 64 59 50 37 28 29 21 19 15 9 5 360 359 355 351 354 3 4 1 359 357 352 349 345 342 339 335 331 328 326 324 321 319 319
26 110 162 9 316 215 103 62 29 135 42 46 271 101 63 56 48 49 47 37 30 20 21 17 10 7 1 360 358 357 356 356 2 3 359 355 349 346 345 342 338 336 336 332 329 325 323 321 320
94 43 130 347 356 155 72 95 64 49 310 286 100 89 83 63 52 44 42 33 30 28 25 20 17 15 18 18 22 22 19 14 9 6 358 353 349 345 341 339 336 332 332 330 327 324 321 319 316
79 142 58 59 37 51 70 60 142 46 345 103 104 76 75 79 66 56 55 47 37 33 30 29 25 28 28 28 30 29 29 23 15 8 6 1 357 352 347 342 336 332 330 327 323 319 317 316 313
100 86 74 38 10 50 88 53 158 266 329 126 104 97 82 76 67 59 50 42 40 35 34 36 35 35 37 39 39 36 33 26 23 20 14 8 3 357 350 342 338 333 331 324 319 315 312 311 309
135 76 38 20 338 61 285 230 201 268 229 151 121 114 94 74 65 52 50 47 42 45 43 43 40 40 42 42 42 39 33 31 25 19 12 9 5 358 352 347 342 338 331 325 322 315 307 304 304
50 52 22 322 352 277 129 255 203 300 181 182 145 118 102 72 60 59 57 59 58 57 50 45 39 34 32 30 28 24 21 18 14 8 4 2 0 356 350 345 341 336 332 331 328 322 316 309 304
15 144 317 308 56 316 61 267 182 338 201 180 141 136 120 98 70 66 69 69 63 54 46 38 31 26 21 18 16 14 13 11 7 2 360 357 355 354 351 347 342 339 335 332 329 323 318 310 306
235 27 289 270 341 348 291 268 240 268 191 190 161 153 150 131 121 86 70 61 54 48 40 33 25 20 15 10 6 4 3 2 1 357 357 354 352 351 349 347 344 343 338 334 330 323 317 309 305
130 182 270 259 38 325 254 273 256 200 186 199 191 187 182 171 161 103 69 53 46 38 30 26 20 16 12 10 6 359 355 355 353 352 352 350 349 349 347 343 342 341 335 330 327 323 319 314 313
49 2 290 280 16 351 352 292 264 181 202 189 196 201 193 188 182 131 43 34 32 26 23 18 16 13 11 8 4 358 351 344 346 343 345 344 343 342 340 337 335 333 329 329 328 326 319 311 314
37 182 319 261 331 68 325 285 280 222 170 205 213 205 204 202 204 211 334 351 360 9 10 6 8 6 5 1 357 354 352 340 340 340 338 337 336 336 334 332 327 326 324 321 323 323 320 311 308
295 78 316 298 19 287 16 282 306 301 257 234 215 212 208 211 212 217 235 282 345 349 355 357 357 359 356 355 354 353 344 332 326 327 326 329 333 332 332 330 327 324 319 316 315 315 314 312 304
302 338 279 79 104 13 350 67 274 14 285 246 220 210 213 212 209 219 227 242 279 331 345 350 348 351 353 349 348 344 336 329 324 320 321 322 322 323 325 324 322 320 317 313 311 310 307 302 297
16 65 45 67 104 17 243 104 277 239 213 280 257 209 207 211 219 228 232 245 270 316 338 345 345 344 347 344 341 339 335 330 323 324 321 318 318 319 318 318 317 315 313 311 309 308 303 300 294
38 42 341 354 4 234 45 4 251 278 232 232 275 238 209 204 217 229 234 246 275 314 338 348 345 337 340 341 341 338 333 327 323 319 316 317 318 317 315 315 314 311 309 308 307 304 301 299 295
45 119 139 279 287 282 16 240 255 192 280 266 280 273 200 209 226 229 242 257 277 306 331 339 340 335 338 340 338 335 331 326 318 312 313 312 311 310 311 311 310 310 309 306 303 301 296 295 293
320 41 142 95 95 25 267 289 288 266 277 260 259 225 228 226 227 237 260 276 294 300 321 335 338 337 338 338 336 331 326 316 313 313 309 306 306 307 309 310 310 309 306 303 297 295 293 293 292
102 162 32 13 336 311 277 271 246 297 283 271 255 251 247 235 236 249 277 303 316 320 335 337 337 338 336 334 330 323 320 314 310 309 306 304 305 307 308 310 311 310 308 306 301 297 293 291 289
25 14 44 118 143 213 294 251 211 226 227 226 263 262 270 248 237 285 316 327 332 337 339 339 341 337 333 331 326 320 317 315 312 308 307 305 305 305 305 306 310 311 309 308 304 299 297 297 296
315 203 157 126 261 232 193 279 73 223 236 238 277 286 297 281 284 318 328 335 342 341 343 342 338 335 330 327 321 320 319 319 316 313 312 309 304 303 302 305 306 309 309 309 304 299 298 297 295